Theta_e
300 304 313 316 316 314 308 307 305 297 299 300 300 307 309 308 309 309 306 310 313 315 316 316 313 311 310 308 306 305 306 306 306 306 305 305 306 305
297 300 302 316 315 313 310 308 307 304 299 302 301 299 307 307 308 308 306 306 311 313 313 312 310 309 309 307 305 304 304 304 305 303 304 304 303 302
295 296 299 306 312 310 308 307 305 306 303 295 294 298 300 304 301 302 303 303 304 310 311 311 309 308 307 306 305 303 303 303 301 301 302 301 301 301
291 294 295 298 313 310 308 307 304 303 299 295 294 294 298 299 301 298 298 299 298 304 308 309 308 307 306 306 304 302 302 299 298 298 299 298 298 299
290 292 294 297 297 309 306 306 305 301 299 295 292 293 293 294 293 294 294 294 296 300 307 308 308 307 306 305 303 302 298 297 297 296 296 296 296 297
289 291 293 294 297 304 306 305 304 303 298 295 292 292 292 293 295 294 293 293 294 298 302 302 305 305 305 303 302 298 296 296 296 296 295 295 295 295
288 290 292 294 295 297 305 305 304 302 300 294 291 291 290 291 294 294 292 292 293 294 293 292 297 296 298 301 297 296 296 295 294 294 294 294 294 293
286 288 290 292 294 298 300 304 304 301 299 297 294 292 291 292 293 294 292 290 289 293 290 288 291 290 292 290 295 295 294 294 294 293 293 293 292 292
286 287 288 291 292 295 297 303 303 303 303 300 296 295 293 293 294 293 293 290 290 290 289 284 289 288 287 291 295 295 293 293 292 292 292 292 291 291
285 287 287 288 291 293 295 300 303 302 304 304 303 302 298 295 296 295 294 291 290 290 290 286 286 283 285 286 294 293 292 292 291 291 291 291 289 289
284 286 287 289 292 293 294 295 302 303 303 302 303 302 299 298 297 294 291 290 286 288 287 286 286 283 284 282 287 292 291 291 290 290 291 290 288 287
285 287 290 291 293 294 294 295 297 303 303 302 302 301 299 298 297 297 294 291 286 286 288 286 284 283 280 283 282 283 284 290 289 289 290 290 288 281
283 284 287 289 291 292 293 293 295 304 305 304 302 302 296 296 297 296 295 294 288 287 288 286 284 284 280 280 281 282 282 282 281 282 288 289 290 285
281 284 286 289 289 290 291 292 295 297 305 303 300 299 297 296 295 292 290 288 288 289 290 287 285 285 281 277 280 281 280 281 280 280 280 285 287 288
282 284 286 286 288 289 290 290 295 296 302 299 297 296 297 298 293 287 285 284 284 285 286 285 287 286 284 285 281 278 279 279 279 279 279 279 279 280
282 282 284 285 287 288 288 290 295 297 301 298 297 296 290 288 288 288 285 286 285 282 283 286 286 286 283 284 282 279 278 277 278 278 278 279 279 280
282 282 281 281 282 284 285 288 294 296 299 299 296 291 288 289 288 287 287 286 284 281 280 281 282 283 282 283 278 278 277 276 277 278 277 277 277 279
280 279 279 280 280 282 284 285 292 295 298 297 295 290 289 289 287 287 287 288 286 285 281 280 282 283 282 281 283 277 274 275 275 276 276 274 273 277
277 278 278 279 280 283 284 285 285 296 298 296 293 291 290 290 287 286 287 286 286 285 283 283 285 287 283 279 276 280 273 272 274 272 273 273 273 276
277 276 276 278 280 281 284 285 285 294 296 294 291 290 290 289 288 287 287 287 285 284 282 283 286 288 288 281 274 271 279 273 271 270 270 273 276 284
274 274 276 277 279 280 282 283 285 288 294 292 291 290 290 289 289 288 288 289 286 284 282 282 285 286 279 279 274 271 271 279 275 269 269 269 269 271
273 273 275 276 277 279 280 281 283 288 292 292 291 290 290 290 289 289 288 286 286 286 286 284 281 281 280 279 275 271 269 269 277 280 279 276 272 272
271 273 274 275 276 278 279 280 281 287 293 292 291 290 290 289 291 290 289 288 287 285 282 280 280 279 276 277 275 271 269 267 268 269 270 281 281 281
Wind_Speed
12 13 9 8 8 8 5 3 4 5 9 6 5 10 9 8 11 10 8 13 16 15 13 10 6 7 5 3 2 4 5 7 9 10 12 14 16 18
9 12 13 10 9 8 9 5 3 5 4 6 7 3 9 9 10 11 9 11 15 15 13 11 9 8 6 4 2 2 4 6 8 9 11 14 16 17
11 11 14 17 6 7 7 6 3 3 7 1 1 3 6 10 7 6 8 8 6 13 13 11 11 9 6 5 3 1 2 6 6 8 12 14 14 17
13 12 14 10 13 10 9 12 7 3 4 4 3 3 4 6 8 9 6 5 6 10 13 12 12 10 9 6 3 1 6 6 5 8 11 12 14 15
13 13 13 13 16 10 10 10 9 4 3 4 3 2 1 3 4 3 4 4 4 10 14 13 12 10 9 7 5 6 7 6 6 7 10 11 14 16
13 14 13 14 15 17 12 13 11 11 5 4 3 3 2 1 3 5 4 2 3 3 7 8 10 10 9 8 7 8 8 6 6 9 9 10 13 16
13 13 14 15 20 23 13 13 12 11 8 6 3 3 3 3 11 5 5 4 1 3 3 3 3 3 4 7 8 10 9 7 7 9 7 10 14 14
14 13 14 18 18 22 26 19 19 16 15 12 9 7 8 5 6 8 6 5 5 5 4 3 4 3 3 4 10 11 9 8 9 6 7 11 14 14
15 15 14 11 17 15 20 23 24 27 24 17 15 13 11 12 12 10 8 5 4 4 6 3 2 3 2 5 12 12 10 8 8 5 8 12 13 12
15 15 16 16 15 16 13 15 17 17 20 15 18 17 12 12 13 7 7 6 3 4 4 4 3 2 3 3 11 11 9 7 6 6 10 12 12 12
15 15 15 17 20 23 16 15 18 16 20 27 23 20 13 16 13 10 9 9 2 3 3 4 3 4 3 2 3 9 8 7 6 6 11 12 11 11
14 15 20 19 22 23 16 15 18 18 16 17 17 11 14 19 24 15 13 13 5 2 6 5 4 5 4 1 1 1 2 8 8 8 11 10 10 4
12 12 10 23 25 21 23 16 16 19 19 15 15 13 11 12 13 11 13 13 6 3 8 6 5 4 4 5 2 2 2 3 2 4 10 9 10 7
14 12 13 22 27 29 23 26 25 24 13 13 11 12 12 13 12 7 5 5 3 4 16 5 6 5 6 4 5 2 2 3 3 2 3 6 9 8
12 19 30 29 29 22 23 28 23 12 12 12 12 12 13 11 10 9 8 8 10 7 4 2 5 7 4 6 7 5 6 2 3 3 3 3 2 2
18 15 20 26 28 24 19 17 12 11 14 14 13 10 8 10 9 9 7 7 5 3 7 6 5 5 5 7 4 8 3 6 3 3 2 2 3 1
21 13 11 11 12 11 10 12 11 11 14 12 12 11 10 11 10 9 9 7 5 8 4 4 8 12 10 7 5 4 6 4 3 4 4 4 2 2
15 12 12 11 12 12 11 10 12 15 13 13 13 13 14 14 13 10 9 10 12 10 8 6 9 9 4 9 11 7 3 4 3 4 2 3 1 2
12 11 12 12 12 12 11 10 12 12 14 12 13 14 14 15 20 13 12 10 10 10 10 9 9 9 7 4 1 4 5 2 4 3 2 2 4 3
10 10 11 11 12 12 11 9 11 14 13 13 13 14 14 17 16 16 14 15 12 9 9 7 7 7 10 12 8 2 4 5 4 4 3 1 1 2
10 11 12 12 11 11 11 11 12 16 12 13 13 14 15 17 17 17 16 21 19 11 13 12 6 11 10 8 7 3 1 7 5 5 4 4 3 1
11 13 12 11 12 12 11 12 12 17 13 13 14 14 15 17 17 18 17 18 17 13 10 9 9 8 3 4 8 8 3 2 5 10 4 3 5 6
12 12 12 12 12 12 12 12 12 17 14 14 13 14 15 16 16 17 16 17 16 14 15 12 7 3 3 6 12 8 8 4 3 3 3 4 4 8
Wind_Direction
303 307 276 250 233 218 230 226 159 160 218 222 202 204 199 189 196 192 187 195 199 210 222 236 212 174 191 227 287 331 350 356 3 3 5 6 2 3
293 293 308 253 231 211 216 240 210 170 213 197 216 179 193 196 191 188 185 180 197 203 209 223 210 204 214 222 247 339 3 3 16 4 9 11 5 3
295 306 291 301 207 210 203 206 219 188 214 233 135 220 184 189 174 173 170 182 190 200 206 216 207 210 214 227 245 46 31 45 24 10 17 13 5 3
301 298 305 307 262 208 196 208 204 172 134 175 175 201 206 189 173 170 173 180 176 199 201 203 202 199 201 203 193 144 93 73 46 30 22 15 7 6
295 289 285 298 311 210 195 206 207 166 142 145 172 175 170 155 124 129 145 158 184 190 195 191 194 194 184 178 172 123 99 89 65 36 32 13 14 15
296 295 296 296 279 285 199 196 197 197 171 153 177 177 149 121 131 172 150 132 172 172 182 175 171 179 169 173 150 121 119 112 69 43 28 17 26 27
289 292 288 288 304 274 259 196 190 198 189 179 175 154 163 148 197 173 143 136 159 147 135 167 141 146 159 150 127 138 131 109 69 52 20 30 38 35
293 291 293 293 287 285 298 201 187 188 196 193 193 189 194 182 167 178 128 149 204 186 129 161 122 168 146 138 147 140 129 102 71 60 39 42 49 41
292 291 292 287 291 295 308 238 198 199 198 192 196 203 185 180 172 168 171 160 188 156 107 140 145 129 150 131 143 138 127 96 80 68 58 58 56 48
287 283 284 285 281 287 284 284 220 205 210 204 211 214 208 167 173 178 158 103 72 91 132 136 169 125 122 107 147 140 128 101 97 71 70 71 62 53
288 280 276 279 281 288 288 282 251 214 217 214 210 220 151 160 157 133 149 158 122 190 164 112 177 117 97 108 148 144 134 113 95 74 76 79 70 64
287 285 284 286 281 280 272 266 283 220 209 209 218 208 167 171 169 185 167 172 137 113 199 114 158 152 89 41 128 129 117 119 90 84 85 82 87 73
298 296 293 292 291 296 287 282 273 273 215 207 205 199 178 182 193 189 184 177 159 149 166 132 156 139 82 131 142 201 132 97 92 71 81 84 87 86
293 291 288 297 296 296 289 280 278 294 220 196 192 189 185 184 190 171 149 105 52 133 162 154 131 154 127 132 149 165 119 107 102 93 89 82 68 66
290 291 295 294 291 291 286 287 268 281 218 187 191 186 191 185 152 121 93 92 67 64 98 145 155 140 122 124 150 160 144 159 105 132 120 103 100 17
291 286 285 288 287 282 285 276 254 261 226 192 190 181 141 152 159 158 145 151 112 74 26 36 99 115 115 108 121 146 146 149 140 126 109 94 93 311
292 286 282 283 284 279 275 279 247 254 229 197 179 166 160 166 162 165 146 153 136 146 125 39 67 80 64 108 108 116 141 108 121 146 126 124 100 223
289 282 280 276 275 278 272 273 267 235 236 200 179 171 167 169 160 163 162 167 154 157 144 147 140 109 66 50 51 129 91 126 143 134 121 112 135 254
281 278 273 270 267 265 264 267 277 237 216 200 183 178 170 167 161 164 166 161 153 155 152 154 164 145 122 117 329 39 123 144 123 91 133 172 153 218
274 283 283 277 278 278 276 270 268 257 206 197 190 175 174 163 169 167 171 165 155 149 152 168 173 171 157 164 150 197 108 134 129 138 143 68 53 256
280 279 275 273 273 275 277 276 269 272 206 192 187 177 177 165 173 170 170 165 155 160 164 176 164 113 108 99 84 88 330 96 127 146 148 108 141 346
280 275 274 275 274 274 272 274 273 270 208 191 185 180 181 170 171 166 168 162 168 167 157 129 125 135 98 112 136 131 125 23 77 116 147 176 166 164
274 275 275 275 275 273 271 270 264 266 208 195 185 183 179 170 171 168 168 167 158 151 146 137 137 89 71 121 133 139 128 111 85 82 344 79 103 91